Voltar ao catálogo

STARLINK-5385

AtivoComunicaçõesVLEO
NORAD 54821·PAYLOAD·🇺🇸 United States

Lançado Dec 28, 2022 de Cape Canaveral Space Force Station

Loading…

Próximas Passagens (próximas 24 horas)

TLE

AtualizadoSource: CelesTrak SupGP

Época: Sep 15, 2026, 01:42 UTC

1 54821C 22177B   26258.07131944  .00014298  00000+0  51795-3 0  2582
2 54821  42.9998 146.4723 0001194 248.4117 254.8170 15.27567643    16

Acompanhe STARLINK-5385 em tempo real com AllMySat

Download on the App Store